Torna al catalogo

STARLINK-31736

AttivoComunicazioniVLEO
NORAD 59547·PAYLOAD·🇺🇸 United States

Lanciato Apr 18, 2024 da Cape Canaveral Space Force Station

Loading…

Prossimi Passaggi (prossime 24 ore)

TLE

AggiornatoSource: CelesTrak SupGP

Epoca: Sep 14, 2026, 21:25 UTC

1 59547C 24074P   26257.89284722 -.00013304  00000+0 -48186-3 0  2570
2 59547  43.0037 348.0499 0001953 272.0416 345.3143 15.27585447    18

Traccia STARLINK-31736 in tempo reale con AllMySat

Download on the App Store